Time,TemperatureF,DewpointF,PressureIn,WindDirection,WindDirectionDegrees,WindSpeedMPH,WindSpeedGustMPH,Humidity,HourlyPrecipIn,Conditions,Clouds,dailyrainin,SolarRadiationWatts/m^2,SoftwareType,DateUTC
2013-04-19 00:02:00,54.0,-12.0,-100.00,SW,215,9.0,13.0,6,0.00,,,0.00,0.000000,,2013-04-19 07:02:00,
2013-04-19 00:12:00,54.0,-12.0,-100.00,SW,215,9.0,13.0,6,0.00,,,0.00,0.000000,,2013-04-19 07:12:00,
2013-04-19 00:21:00,54.0,-12.0,-100.00,SW,215,9.0,13.0,6,0.00,,,0.00,0.000000,,2013-04-19 07:21:00,
2013-04-19 00:52:00,54.0,-9.0,-100.00,SSW,209,7.0,10.0,7,0.00,,,0.00,0.000000,,2013-04-19 07:52:00,
2013-04-19 01:02:00,54.0,-9.0,-100.00,SSW,209,7.0,10.0,7,0.00,,,0.00,0.000000,,2013-04-19 08:02:00,
2013-04-19 01:12:00,54.0,-9.0,-100.00,SSW,209,7.0,10.0,7,0.00,,,0.00,0.000000,,2013-04-19 08:12:00,
2013-04-19 01:21:00,54.0,-9.0,-100.00,SSW,209,7.0,10.0,7,0.00,,,0.00,0.000000,,2013-04-19 08:21:00,
2013-04-19 01:52:00,52.0,-13.0,-100.00,SW,223,6.0,9.0,6,0.00,,,0.00,0.000000,,2013-04-19 08:52:00,
2013-04-19 02:01:00,52.0,-13.0,-100.00,SW,223,6.0,9.0,6,0.00,,,0.00,0.000000,,2013-04-19 09:01:00,
2013-04-19 02:52:00,50.0,-9.0,-100.00,NNW,336,6.0,11.0,8,0.00,,,0.00,0.000000,,2013-04-19 09:52:00,
2013-04-19 03:02:00,50.0,-9.0,-100.00,NNW,336,6.0,11.0,8,0.00,,,0.00,0.000000,,2013-04-19 10:02:00,
2013-04-19 03:13:00,50.0,-9.0,-100.00,NNW,336,6.0,11.0,8,0.00,,,0.00,0.000000,,2013-04-19 10:13:00,
2013-04-19 03:52:00,52.0,-5.0,-100.00,NNW,328,4.0,7.0,9,0.00,,,0.00,0.000000,,2013-04-19 10:52:00,
2013-04-19 04:02:00,52.0,-5.0,-100.00,NNW,328,4.0,7.0,9,0.00,,,0.00,0.000000,,2013-04-19 11:02:00,
2013-04-19 04:11:00,52.0,-5.0,-100.00,NNW,328,4.0,7.0,9,0.00,,,0.00,0.000000,,2013-04-19 11:11:00,
2013-04-19 04:21:00,52.0,-5.0,-100.00,NNW,328,4.0,7.0,9,0.00,,,0.00,0.000000,,2013-04-19 11:21:00,
2013-04-19 04:52:00,52.0,-10.0,-100.00,North,0,0.0,5.0,7,0.00,,,0.00,0.000000,,2013-04-19 11:52:00,
2013-04-19 05:02:00,52.0,-10.0,-100.00,North,0,0.0,5.0,7,0.00,,,0.00,0.000000,,2013-04-19 12:02:00,
2013-04-19 05:52:00,50.0,-9.0,-100.00,North,9,0.0,5.0,8,0.00,,,0.00,0.000000,,2013-04-19 12:52:00,
2013-04-19 06:01:00,50.0,-9.0,-100.00,North,9,0.0,5.0,8,0.00,,,0.00,0.000000,,2013-04-19 13:01:00,
2013-04-19 06:11:00,50.0,-9.0,-100.00,North,9,0.0,5.0,8,0.00,,,0.00,0.000000,,2013-04-19 13:11:00,
2013-04-19 06:21:00,50.0,-9.0,-100.00,North,9,0.0,5.0,8,0.00,,,0.00,0.000000,,2013-04-19 13:21:00,
2013-04-19 06:52:00,51.0,-11.0,-100.00,NW,322,0.0,2.0,7,0.00,,,0.00,2.000000,,2013-04-19 13:52:00,
2013-04-19 07:01:00,51.0,-11.0,-100.00,NW,322,0.0,2.0,7,0.00,,,0.00,2.000000,,2013-04-19 14:01:00,
2013-04-19 07:11:00,51.0,-11.0,-100.00,NW,322,0.0,2.0,7,0.00,,,0.00,2.000000,,2013-04-19 14:11:00,
2013-04-19 07:21:00,51.0,-11.0,-100.00,NW,322,0.0,2.0,7,0.00,,,0.00,2.000000,,2013-04-19 14:21:00,
2013-04-19 07:52:00,55.0,-15.0,-100.00,NW,319,3.0,6.0,5,0.00,,,0.00,122.000000,,2013-04-19 14:52:00,
2013-04-19 08:52:00,58.0,-13.0,-100.00,WSW,242,8.0,10.0,5,0.00,,,0.00,374.000000,,2013-04-19 15:52:00,
2013-04-19 10:52:00,63.0,-5.0,-100.00,North,2,5.0,12.0,6,0.00,,,0.00,871.000000,,2013-04-19 17:52:00,
2013-04-19 11:01:00,63.0,-5.0,-100.00,North,2,5.0,12.0,6,0.00,,,0.00,871.000000,,2013-04-19 18:01:00,
2013-04-19 11:13:00,63.0,-5.0,-100.00,North,2,5.0,12.0,6,0.00,,,0.00,871.000000,,2013-04-19 18:13:00,
2013-04-19 11:22:00,63.0,-5.0,-100.00,North,2,5.0,12.0,6,0.00,,,0.00,871.000000,,2013-04-19 18:22:00,
2013-04-19 11:52:00,67.0,-11.0,-100.00,West,273,3.0,13.0,4,0.00,,,0.00,1056.000000,,2013-04-19 18:52:00,
2013-04-19 12:52:00,69.0,-15.0,-100.00,South,178,8.0,14.0,3,0.00,,,0.00,1176.000000,,2013-04-19 19:52:00,
2013-04-19 16:52:00,71.0,-8.0,-100.00,SW,218,11.0,23.0,4,0.00,,,0.00,901.000000,,2013-04-19 23:52:00,
2013-04-19 17:52:00,69.0,-5.0,-100.00,SSW,199,15.0,22.0,5,0.00,,,0.00,566.000000,,2013-04-20 00:52:00,
2013-04-19 18:01:00,69.0,-5.0,-100.00,SSW,199,15.0,22.0,5,0.00,,,0.00,566.000000,,2013-04-20 01:01:00,
2013-04-19 18:52:00,68.0,5.0,-100.00,WSW,248,9.0,23.0,8,0.00,,,0.00,351.000000,,2013-04-20 01:52:00,
2013-04-19 19:01:00,68.0,5.0,-100.00,WSW,248,9.0,23.0,8,0.00,,,0.00,351.000000,,2013-04-20 02:01:00,
2013-04-19 19:11:00,68.0,5.0,-100.00,WSW,248,9.0,23.0,8,0.00,,,0.00,351.000000,,2013-04-20 02:11:00,
2013-04-19 19:21:00,68.0,5.0,-100.00,WSW,248,9.0,23.0,8,0.00,,,0.00,351.000000,,2013-04-20 02:21:00,
2013-04-19 19:52:00,63.0,8.0,-100.00,SW,229,10.0,26.0,11,0.00,,,0.00,61.000000,,2013-04-20 02:52:00,
2013-04-19 20:01:00,63.0,8.0,-100.00,SW,229,10.0,26.0,11,0.00,,,0.00,61.000000,,2013-04-20 03:01:00,
2013-04-19 20:11:00,63.0,8.0,-100.00,SW,229,10.0,26.0,11,0.00,,,0.00,61.000000,,2013-04-20 03:11:00,
2013-04-19 20:53:00,61.0,10.0,-100.00,WSW,241,10.0,23.0,13,0.00,,,0.00,0.000000,,2013-04-20 03:53:00,
2013-04-19 21:03:00,61.0,10.0,-100.00,WSW,241,10.0,23.0,13,0.00,,,0.00,0.000000,,2013-04-20 04:03:00,
2013-04-19 21:12:00,61.0,10.0,-100.00,WSW,241,10.0,23.0,13,0.00,,,0.00,0.000000,,2013-04-20 04:12:00,
2013-04-19 21:23:00,61.0,10.0,-100.00,WSW,241,10.0,23.0,13,0.00,,,0.00,0.000000,,2013-04-20 04:23:00,
2013-04-19 21:52:00,59.0,11.0,-100.00,SW,215,9.0,22.0,15,0.00,,,0.00,0.000000,,2013-04-20 04:52:00,
2013-04-19 22:02:00,59.0,11.0,-100.00,SW,215,9.0,22.0,15,0.00,,,0.00,0.000000,,2013-04-20 05:02:00,
2013-04-19 22:12:00,59.0,11.0,-100.00,SW,215,9.0,22.0,15,0.00,,,0.00,0.000000,,2013-04-20 05:12:00,
2013-04-19 22:21:00,59.0,11.0,-100.00,SW,215,9.0,22.0,15,0.00,,,0.00,0.000000,,2013-04-20 05:21:00,
2013-04-19 22:52:00,59.0,13.0,-100.00,WNW,299,6.0,17.0,16,0.00,,,0.00,0.000000,,2013-04-20 05:52:00,
2013-04-19 23:01:00,59.0,13.0,-100.00,WNW,299,6.0,17.0,16,0.00,,,0.00,0.000000,,2013-04-20 06:01:00,
2013-04-19 23:12:00,59.0,13.0,-100.00,WNW,299,6.0,17.0,16,0.00,,,0.00,0.000000,,2013-04-20 06:12:00,
2013-04-19 23:21:00,59.0,13.0,-100.00,WNW,299,6.0,17.0,16,0.00,,,0.00,0.000000,,2013-04-20 06:21:00,
2013-04-19 23:52:00,60.0,15.0,-100.00,East,99,7.0,16.0,17,0.00,,,0.00,0.000000,,2013-04-20 06:52:00,